Location: Baili�vre
(50.0696°N, 4.2409°E)
Time: 23:27:27
(UTC+00:00)

Meteor 2-6 Rocket - Pass Details

Date: 08 August 2020
Orbit: 806 x 914 km, 81.3° (Epoch: 23 September)

Event Time Altitude Azimuth Distance (km) Brightness Sun altitude
Rises 19:58:29 0° 346° (NNW) 3,357 8.2 -7.0°
Reaches altitude 10° 20:00:52 10° 345° (NNW) 2,430 7.4 -7.3°
Maximum altitude 20:06:20 73° 261° (W) 875 4.5 -8.1°
Drops below altitude 10° 20:11:55 10° 178° (S) 2,478 6.3 -8.8°
Sets 20:14:22 0° 176° (S) 3,426 7.0 -9.1°
